Wind_Speed
3 4 6 7 7 8 9 9 9 8 8 6 3 2 2 7 13 12 7 10 11 11 10 7 6 4 5 3 3 3 5 8 11 9 10 5 6 4 3 8 3 5 4 1 9
5 6 7 7 8 8 8 8 7 7 6 5 2 1 1 3 7 10 11 10 11 11 9 7 5 2 2 3 2 6 5 5 5 10 10 12 14 14 10 12 11 8 6 2 12
5 6 7 8 8 8 8 7 6 5 4 1 2 4 3 8 2 7 9 9 11 11 10 8 5 2 3 1 1 2 5 4 11 12 14 16 17 16 17 17 19 15 12 7 13
5 6 7 8 8 8 8 7 5 4 1 2 4 5 7 4 1 4 7 8 8 9 11 7 5 1 1 0 2 6 5 7 8 9 10 14 16 16 17 20 20 21 18 13 15
5 6 8 9 9 9 8 6 4 2 1 4 3 3 4 4 4 4 5 6 7 8 9 8 7 2 1 3 3 5 6 8 12 15 17 15 16 17 18 18 18 18 16 15 17
6 8 9 10 10 8 7 6 3 2 4 6 4 3 2 3 2 3 4 6 7 7 6 6 4 3 1 3 5 6 12 15 10 11 9 10 13 4 8 6 7 12 16 18 19
8 9 10 11 10 9 8 5 2 3 6 7 7 4 2 1 1 3 4 6 7 7 4 5 3 4 3 3 4 8 9 10 1 7 9 4 12 10 6 8 8 10 10 10 15
7 8 10 12 9 10 8 4 3 7 7 6 6 3 0 0 1 4 6 7 9 6 8 4 4 2 3 6 3 4 5 8 8 5 1 4 13 6 8 8 12 15 15 10 9
6 8 10 12 10 11 8 2 5 5 7 4 6 3 2 2 4 7 7 6 8 7 5 5 1 2 3 5 2 0 9 13 10 7 6 7 13 9 16 16 16 16 16 13 10
5 8 10 11 10 10 4 2 8 5 7 5 4 2 0 3 5 5 8 8 3 5 1 2 2 4 1 7 8 12 13 9 12 8 13 14 16 15 18 18 17 17 16 13 12
5 8 9 9 9 8 3 6 3 2 4 2 5 2 3 5 1 5 11 7 4 1 5 3 3 6 8 6 10 11 12 13 11 8 10 9 14 6 14 12 11 10 11 11 11
6 7 8 7 6 7 4 3 4 6 4 4 3 1 3 6 2 6 12 5 4 4 7 3 3 6 9 7 9 11 11 12 4 5 4 15 4 4 11 11 12 16 13 12 12
6 7 8 6 2 6 6 2 7 7 2 2 1 1 3 5 2 6 10 7 4 3 6 4 4 7 8 11 13 9 10 13 10 10 3 14 6 4 17 16 19 16 14 12 12
8 6 6 6 1 7 6 2 8 6 4 3 1 1 3 4 1 7 11 3 2 4 6 3 2 6 9 10 10 9 14 10 5 5 7 11 4 5 20 20 20 22 21 18 14
9 7 5 2 1 5 4 4 7 2 4 4 2 1 3 2 3 3 8 3 5 5 4 5 5 7 8 11 9 10 13 4 2 2 5 15 4 10 21 20 26 27 27 20 16
10 8 7 4 2 5 4 5 6 4 3 5 1 2 3 5 2 7 4 7 1 2 2 4 3 2 5 15 5 16 5 3 2 2 3 7 5 10 13 18 21 27 22 19 16
12 10 7 5 3 3 2 6 4 5 2 5 2 2 1 3 2 5 4 7 6 5 7 6 2 1 4 10 2 16 11 2 1 3 5 8 6 5 15 21 16 16 20 18 15
13 11 10 8 6 2 3 4 6 2 3 2 2 2 2 2 2 3 1 2 4 4 3 5 3 6 9 4 7 8 6 3 3 6 5 9 10 6 14 16 21 22 20 20 19
13 12 11 10 8 3 3 5 2 3 5 7 3 3 3 2 2 1 2 1 3 6 7 5 2 2 2 3 4 5 5 2 1 2 4 3 12 4 15 16 23 26 27 27 22
13 9 12 10 9 4 5 3 4 4 6 3 5 2 4 3 3 1 1 2 2 2 2 2 5 2 2 3 2 5 1 1 2 5 5 5 11 7 16 16 16 21 26 25 21
10 5 7 13 11 5 6 4 4 7 6 5 5 4 3 3 2 2 2 3 3 2 1 1 3 1 3 2 4 1 2 3 1 3 4 6 6 5 8 11 13 16 18 22 22
9 4 9 15 7 3 7 4 6 8 5 3 4 3 5 6 4 4 3 2 3 1 1 2 3 5 3 3 3 2 2 4 4 2 1 3 3 5 5 7 9 11 13 15 19
9 7 11 19 6 7 3 3 7 7 6 7 7 4 2 6 4 4 5 4 5 2 0 3 2 5 4 5 3 3 1 1 2 2 2 3 4 3 3 4 6 8 10 12 14
12 6 6 13 7 8 8 6 7 6 6 5 5 6 4 5 4 5 5 4 4 2 1 4 3 6 7 7 4 8 5 8 5 4 3 3 5 2 3 3 5 5 7 9 13
20 9 12 7 12 11 11 10 12 8 4 8 3 7 7 5 4 5 5 4 3 2 2 3 4 4 10 15 14 15 15 11 11 9 5 3 4 2 3 4 6 5 5 9 12
17 10 9 12 10 20 13 12 15 8 12 8 7 13 10 6 7 7 7 5 3 5 4 2 1 3 6 4 4 9 12 11 11 10 12 10 8 3 6 6 7 8 8 9 9
35 30 17 14 10 12 16 19 15 13 11 8 16 7 12 14 6 6 1 4 5 5 6 3 2 3 3 4 13 9 4 10 6 7 5 4 3 10 8 9 10 10 10 12 12
Wind_Direction
349 336 320 311 315 318 323 335 343 351 1 13 68 148 118 63 52 42 37 37 34 30 31 26 30 71 124 136 144 186 241 250 255 258 257 228 249 224 263 265 273 276 289 356 172
336 333 317 314 323 324 323 325 335 349 7 21 46 46 228 161 55 35 30 30 25 24 29 33 24 84 109 136 175 230 244 270 287 278 272 272 272 269 276 259 264 262 271 214 178
327 321 319 318 326 319 315 319 333 348 15 41 62 27 4 189 54 16 26 29 28 32 30 28 21 85 80 133 168 207 263 305 267 270 274 274 272 272 270 264 267 270 284 227 190
322 327 320 325 327 322 319 322 326 350 27 115 90 60 59 146 44 10 29 25 24 25 23 16 13 93 154 219 220 258 252 272 283 278 279 275 285 272 267 271 265 265 269 248 220
329 340 335 336 331 329 324 323 330 326 159 144 125 137 82 83 75 38 15 9 14 14 11 8 5 340 315 321 272 234 309 287 279 283 278 275 270 273 276 270 261 256 258 243 235
349 350 338 337 337 339 336 328 312 265 174 167 153 149 166 99 64 26 3 352 357 6 0 9 346 330 318 307 287 322 305 293 289 291 276 275 280 252 255 284 265 246 258 253 243
357 342 344 340 341 346 339 328 284 173 162 171 164 117 99 100 329 340 342 334 350 355 350 351 353 322 313 297 304 295 292 302 291 297 292 271 256 234 251 285 269 255 266 277 255
345 345 349 342 347 348 346 349 139 150 157 158 177 180 105 108 320 343 338 328 335 348 352 1 345 294 317 308 259 306 265 335 347 325 340 270 283 286 292 295 289 284 274 277 286
329 348 348 352 358 352 350 87 142 157 165 165 175 172 158 278 322 313 327 330 330 343 6 359 25 302 300 330 276 240 328 329 334 314 316 275 297 300 310 301 291 283 273 272 277
325 347 350 355 357 357 2 112 148 118 140 114 150 201 266 298 311 345 339 334 319 333 331 352 281 266 281 351 350 320 321 320 320 323 314 298 291 314 325 318 300 283 269 271 274
322 346 350 359 360 10 72 118 131 83 178 178 132 101 7 342 106 358 355 338 343 19 360 15 294 11 350 338 307 304 306 313 329 339 319 336 318 355 356 10 2 355 303 283 270
314 340 347 359 13 14 40 164 189 158 129 131 131 70 352 0 275 6 1 345 336 340 330 217 343 348 317 305 308 313 310 342 339 6 295 344 66 29 18 20 4 345 333 311 295
293 326 342 355 1 17 34 120 161 148 178 164 248 254 327 346 324 348 4 335 326 310 349 300 2 325 311 324 335 342 335 334 308 319 218 344 189 0 21 7 355 354 338 320 300
283 301 334 346 12 11 38 70 156 148 202 146 182 224 317 309 154 355 3 343 270 321 333 283 352 336 320 326 343 317 354 305 280 300 15 15 327 30 357 351 353 348 342 331 309
274 289 314 348 340 21 6 107 152 148 246 120 138 238 8 16 334 12 339 335 315 324 279 43 331 341 322 342 333 315 336 297 245 280 275 17 284 23 3 348 340 339 333 331 316
259 270 286 299 293 10 25 125 136 222 221 159 152 334 204 38 53 333 358 9 305 295 254 296 312 275 317 316 298 316 325 259 238 274 325 13 336 4 353 331 325 326 346 339 335
253 260 266 270 249 351 73 137 202 242 127 167 154 33 72 22 99 10 20 41 26 331 11 325 130 298 322 320 181 358 356 338 301 359 356 1 310 34 347 331 323 349 358 356 356
252 256 258 252 236 282 139 210 231 86 181 103 145 135 184 341 104 14 329 64 70 359 320 351 165 8 358 6 320 341 2 30 348 347 323 331 351 6 342 339 11 12 12 13 12
253 256 258 246 229 227 209 223 274 180 140 160 147 191 159 187 306 318 36 40 31 16 5 338 297 336 5 334 332 8 12 7 290 179 272 4 26 49 342 8 11 10 10 17 20
250 259 247 227 207 193 242 251 191 164 132 170 206 233 188 172 206 4 199 125 162 57 328 61 289 179 344 240 93 1 55 258 76 1 346 21 39 30 337 356 4 11 10 16 26
235 225 232 201 183 194 231 223 185 181 157 178 179 163 200 191 205 169 149 161 203 111 116 235 270 126 252 15 337 150 43 41 295 335 335 321 55 7 332 348 357 13 18 19 36
202 217 198 177 185 207 218 195 179 164 172 144 147 158 196 177 186 198 205 250 169 186 329 90 309 283 305 355 264 306 36 16 330 8 298 309 62 19 1 350 0 17 21 34 52
189 186 191 180 202 207 183 195 193 157 182 170 172 185 169 189 208 195 205 136 149 227 100 147 180 292 176 173 163 279 326 27 327 274 258 317 41 49 24 11 38 33 37 42 56
179 180 177 198 244 223 183 194 191 194 162 153 141 143 152 196 225 181 196 170 175 169 133 186 230 259 289 323 318 278 251 286 266 271 352 259 335 62 75 69 61 46 65 69 73
196 213 180 186 213 207 198 188 182 176 189 167 158 197 167 172 195 213 197 175 158 175 155 238 260 255 269 278 279 270 270 271 239 260 270 61 277 338 120 135 111 102 90 97 94
197 183 183 168 172 198 198 200 193 170 166 192 216 193 183 183 204 187 180 201 196 159 172 189 256 287 285 260 241 265 258 259 248 255 256 268 269 169 136 145 149 136 131 119 112
208 210 189 179 163 171 208 204 196 164 200 191 203 150 196 218 169 89 191 151 169 172 170 216 254 294 281 281 300 261 272 209 199 217 229 233 110 165 171 176 172 162 156 147 141
Height
1543 1543 1543 1542 1540 1539 1537 1536 1535 1534 1533 1531 1531 1531 1530 1530 1528 1527 1527 1526 1523 1521 1519 1517 1516 1515 1515 1516 1516 1516 1513 1507 1506 1507 1503 1503 1503 1504 1506 1504 1504 1504 1504 1505 1505
1543 1543 1543 1541 1539 1538 1536 1535 1535 1534 1532 1531 1531 1530 1529 1529 1529 1529 1527 1525 1523 1521 1520 1519 1518 1517 1516 1516 1516 1513 1510 1505 1506 1506 1505 1504 1504 1503 1505 1501 1501 1502 1504 1504 1504
1543 1543 1541 1540 1538 1537 1535 1534 1534 1533 1531 1531 1530 1529 1527 1528 1530 1530 1527 1525 1524 1522 1521 1519 1517 1517 1516 1516 1516 1514 1509 1508 1507 1506 1506 1505 1504 1503 1502 1500 1501 1501 1501 1503 1503
1543 1541 1540 1538 1537 1535 1534 1533 1533 1531 1531 1531 1530 1529 1528 1528 1530 1529 1527 1526 1524 1523 1522 1520 1519 1517 1515 1513 1515 1512 1511 1510 1507 1507 1507 1504 1503 1500 1500 1499 1499 1499 1499 1499 1502
1542 1540 1539 1537 1535 1534 1532 1532 1531 1530 1530 1530 1530 1530 1529 1530 1531 1529 1527 1526 1525 1523 1522 1521 1519 1517 1513 1514 1514 1511 1509 1509 1507 1506 1505 1503 1501 1499 1496 1496 1495 1495 1496 1496 1497
1540 1539 1538 1536 1534 1532 1531 1529 1529 1529 1529 1529 1530 1530 1530 1530 1530 1529 1527 1526 1525 1523 1522 1521 1520 1518 1515 1514 1512 1511 1510 1506 1505 1503 1502 1501 1497 1497 1492 1493 1491 1491 1492 1492 1493
1539 1538 1537 1534 1532 1531 1529 1528 1527 1528 1528 1529 1529 1530 1530 1532 1529 1528 1527 1526 1524 1523 1522 1520 1519 1518 1515 1511 1512 1510 1506 1500 1499 1499 1499 1498 1492 1491 1490 1490 1489 1488 1488 1489 1488
1539 1538 1535 1533 1531 1529 1527 1526 1526 1527 1528 1529 1529 1530 1530 1530 1529 1528 1527 1526 1523 1522 1520 1519 1518 1517 1515 1513 1509 1506 1504 1500 1495 1498 1497 1498 1489 1484 1489 1489 1487 1486 1484 1485 1485
1539 1536 1534 1532 1530 1528 1527 1526 1526 1527 1528 1529 1530 1530 1530 1530 1529 1528 1527 1525 1523 1521 1519 1518 1518 1517 1515 1508 1500 1503 1504 1501 1498 1496 1498 1496 1489 1485 1487 1485 1484 1483 1481 1481 1481
1537 1535 1533 1531 1529 1527 1526 1526 1527 1528 1529 1529 1530 1533 1531 1531 1528 1527 1525 1523 1522 1521 1520 1519 1518 1512 1509 1506 1510 1507 1503 1500 1498 1493 1493 1491 1487 1485 1486 1484 1481 1479 1477 1477 1478
1536 1534 1533 1530 1529 1527 1527 1527 1532 1531 1529 1529 1530 1530 1530 1529 1528 1527 1524 1522 1521 1521 1518 1518 1513 1513 1512 1512 1510 1507 1504 1499 1493 1493 1496 1490 1489 1486 1487 1483 1481 1478 1476 1474 1475
1536 1534 1532 1530 1528 1527 1526 1526 1527 1529 1530 1529 1530 1530 1529 1528 1528 1527 1525 1524 1521 1519 1518 1515 1513 1514 1515 1511 1509 1503 1500 1494 1492 1495 1495 1493 1489 1488 1485 1484 1483 1480 1477 1475 1473
1534 1533 1532 1530 1528 1527 1525 1526 1526 1528 1529 1530 1529 1529 1529 1529 1527 1526 1525 1523 1521 1518 1518 1516 1514 1516 1513 1508 1506 1498 1501 1500 1499 1494 1495 1491 1484 1483 1481 1483 1482 1480 1476 1472 1471
1533 1532 1531 1529 1531 1527 1526 1526 1526 1528 1524 1529 1529 1529 1529 1526 1526 1525 1524 1525 1520 1518 1518 1515 1516 1516 1511 1507 1508 1501 1500 1500 1497 1493 1494 1495 1481 1476 1480 1483 1484 1478 1476 1471 1468
1531 1530 1529 1529 1528 1527 1528 1525 1527 1529 1530 1529 1528 1528 1527 1527 1527 1525 1523 1522 1520 1518 1521 1515 1515 1515 1512 1509 1509 1501 1501 1498 1497 1494 1493 1491 1495 1481 1488 1490 1483 1479 1475 1470 1466
1528 1528 1528 1528 1527 1527 1525 1526 1529 1530 1527 1526 1527 1528 1526 1526 1527 1525 1524 1523 1522 1520 1520 1517 1519 1517 1512 1509 1508 1504 1499 1499 1498 1494 1481 1498 1503 1483 1502 1501 1490 1481 1475 1471 1466
1526 1526 1526 1526 1526 1525 1525 1527 1526 1524 1526 1526 1525 1527 1527 1527 1526 1527 1525 1525 1524 1521 1518 1515 1514 1516 1516 1508 1504 1501 1492 1498 1493 1497 1494 1493 1493 1500 1504 1499 1493 1483 1477 1472 1468
1522 1523 1523 1523 1523 1524 1524 1525 1526 1519 1520 1525 1527 1528 1525 1528 1527 1526 1525 1524 1528 1527 1524 1524 1514 1515 1516 1515 1515 1511 1510 1516 1520 1508 1507 1497 1506 1502 1506 1497 1492 1486 1481 1476 1470
1519 1519 1520 1520 1521 1522 1524 1517 1509 1514 1517 1522 1526 1524 1526 1528 1527 1524 1525 1526 1528 1528 1528 1525 1518 1517 1518 1517 1518 1508 1511 1518 1524 1521 1512 1502 1488 1502 1502 1493 1491 1487 1482 1478 1472
1515 1517 1516 1517 1518 1521 1520 1511 1511 1515 1518 1520 1519 1522 1522 1524 1525 1524 1526 1527 1527 1529 1530 1528 1527 1517 1517 1518 1517 1513 1518 1511 1510 1521 1511 1489 1492 1506 1502 1495 1494 1490 1487 1484 1480
1512 1513 1511 1512 1516 1519 1512 1507 1510 1513 1515 1517 1517 1521 1521 1523 1524 1523 1524 1528 1528 1527 1529 1529 1530 1515 1518 1514 1514 1512 1510 1512 1513 1512 1511 1498 1496 1501 1501 1502 1499 1497 1495 1491 1486
1507 1510 1507 1510 1515 1512 1506 1507 1508 1510 1514 1515 1517 1518 1518 1521 1523 1522 1522 1523 1528 1528 1525 1529 1527 1520 1513 1516 1519 1517 1515 1513 1511 1511 1510 1510 1496 1502 1504 1505 1503 1501 1500 1497 1494
1500 1503 1504 1507 1502 1503 1504 1505 1506 1508 1510 1512 1514 1516 1519 1520 1522 1521 1523 1526 1527 1528 1525 1527 1524 1517 1511 1516 1517 1514 1516 1518 1517 1516 1505 1506 1494 1503 1504 1504 1506 1505 1503 1502 1500
1494 1496 1501 1501 1499 1494 1496 1498 1501 1504 1506 1509 1511 1515 1518 1520 1520 1521 1521 1525 1526 1527 1528 1527 1524 1521 1515 1511 1517 1514 1514 1514 1515 1509 1498 1497 1497 1498 1504 1504 1506 1508 1507 1506 1505
1481 1476 1477 1484 1488 1491 1490 1488 1494 1500 1503 1505 1511 1509 1512 1520 1522 1519 1520 1522 1526 1526 1527 1526 1520 1521 1516 1515 1515 1513 1512 1511 1513 1503 1502 1498 1501 1497 1501 1504 1506 1509 1510 1510 1509
1466 1468 1470 1470 1475 1483 1486 1484 1485 1492 1495 1499 1502 1503 1508 1510 1510 1513 1516 1517 1517 1524 1524 1527 1518 1522 1512 1512 1514 1510 1504 1506 1506 1505 1503 1499 1498 1497 1502 1505 1507 1508 1510 1512 1513
1453 1455 1461 1464 1467 1472 1470 1474 1477 1483 1490 1490 1493 1500 1506 1504 1509 1512 1516 1515 1517 1518 1519 1523 1521 1519 1505 1509 1505 1495 1490 1496 1497 1496 1493 1494 1490 1497 1501 1503 1504 1507 1509 1511 1513